Weather History for KMCB - October, 2013

Change the Weather History Date:

Tuesday, October 1, 2013

  Actual Average Record
Temperature  
Mean Temperature 76 °F -  
Max Temperature 86 °F 83 °F 93 °F (1990)
Min Temperature 69 °F 58 °F 42 °F (1984)
Cooling Degree Days 12    
Growing Degree Days 26 (Base 50)    
Moisture  
Dew Point 69 °F    
Average Humidity 82    
Maximum Humidity 97    
Minimum Humidity 61    
Precipitation  
Precipitation 0.00 in - - ()
Sea Level Pressure  
Sea Level Pressure 30.00 in    
Wind  
Wind Speed 2 mph (SSE)    
Max Wind Speed 8 mph    
Max Gust Speed -    
Visibility 9 miles    
Events Rain    
Averages and records for this station are not official NWS values.
T = Trace of Precipitation, MM = Missing Value Source: NWS Daily Summary

Daily Weather History Graph

Daily Weather History Graph

Search for Another Location

Airport or City:

Trip Planner

Search our weather history database for the weather conditions in past years. The results will help you decide how hot, cold, wet, or windy it might be!

Date:

Astronomy

Oct. 01, 2013 Rise Set
Actual Time 6:55 AM CDT 6:46 PM CDT
Civil Twilight 6:31 AM CDT 7:10 PM CDT
Nautical Twilight 6:03 AM CDT 7:38 PM CDT
Astronomical Twilight 5:35 AM CDT 8:06 PM CDT
Moon 3:41 AM CDT (10/1) 4:41 PM CDT (10/1)
Length of Visible Light 12h 39m
Length of Day
11h 50m
Waning Crescent, 12% of the Moon is Illuminated
Oct 1
Waning Crescent
Oct 4
New
Oct 11
First Quarter
Oct 18
Full
Oct 26
Last Quarter

Hourly Weather History & Observations

Time (CDT) Temp. Heat Index Dew Point Humidity Pressure Visibility Wind Dir Wind Speed Gust Speed Precip Events Conditions
12:53 AM 71.1 °F - 70.0 °F 96% 29.96 in 8.0 mi SSE 4.6 mph - N/A   Clear
1:53 AM 70.0 °F - 69.1 °F 97% 29.96 in 5.0 mi Calm Calm - N/A   Clear
2:53 AM 70.0 °F - 69.1 °F 97% 29.96 in 7.0 mi Calm Calm - N/A   Partly Cloudy
3:53 AM 70.0 °F - 68.0 °F 93% 29.96 in 5.0 mi Calm Calm - N/A   Partly Cloudy
4:53 AM 69.1 °F - 66.9 °F 93% 29.97 in 7.0 mi Calm Calm - N/A   Clear
5:53 AM 69.1 °F - 66.9 °F 93% 29.99 in 6.0 mi Calm Calm - N/A   Clear
6:53 AM 69.1 °F - 66.9 °F 93% 30.01 in 10.0 mi Calm Calm - N/A   Mostly Cloudy
7:53 AM 70.0 °F - 68.0 °F 93% 30.02 in 8.0 mi Calm Calm - N/A   Scattered Clouds
8:53 AM 73.9 °F - 69.1 °F 85% 30.03 in 10.0 mi Calm Calm - N/A   Overcast
9:53 AM 77.0 °F - 70.0 °F 79% 30.04 in 10.0 mi SSE 5.8 mph - N/A   Mostly Cloudy
10:53 AM 79.0 °F - 69.1 °F 72% 30.04 in 10.0 mi Variable 4.6 mph - N/A   Overcast
11:53 AM 82.9 °F 87.0 °F 70.0 °F 65% 30.03 in 10.0 mi SE 6.9 mph - N/A   Mostly Cloudy
12:53 PM 84.0 °F 87.8 °F 69.1 °F 61% 30.02 in 10.0 mi South 8.1 mph - N/A   Overcast
1:53 PM 84.0 °F 87.8 °F 69.1 °F 61% 30.00 in 10.0 mi Variable 6.9 mph - N/A   Mostly Cloudy
2:53 PM 82.0 °F 85.5 °F 69.1 °F 65% 29.99 in 10.0 mi SSE 6.9 mph - N/A   Partly Cloudy
3:53 PM 81.0 °F 84.4 °F 70.0 °F 69% 29.99 in 10.0 mi SE 3.5 mph - N/A   Partly Cloudy
4:53 PM 80.1 °F 83.2 °F 70.0 °F 71% 29.99 in 10.0 mi SSE 4.6 mph - N/A   Partly Cloudy
5:53 PM 78.1 °F - 69.1 °F 74% 30.00 in 10.0 mi SE 3.5 mph - N/A   Clear
6:53 PM 77.0 °F - 70.0 °F 79% 30.00 in 10.0 mi Calm Calm - N/A   Clear
7:53 PM 75.0 °F - 70.0 °F 84% 30.01 in 10.0 mi Calm Calm - N/A   Clear
8:53 PM 73.9 °F - 69.1 °F 85% 30.02 in 10.0 mi Calm Calm - N/A   Clear
9:53 PM 73.0 °F - 69.1 °F 87% 30.03 in 10.0 mi Calm Calm - N/A   Clear
10:53 PM 72.0 °F - 68.0 °F 87% 30.03 in 10.0 mi SE 3.5 mph - N/A   Partly Cloudy
11:53 PM 72.0 °F - 69.1 °F 91% 30.04 in 10.0 mi Calm Calm - 0.00 in Rain Light Rain